Location: Clyde
(45.1830°S, 169.3170°E)
Time: 17:59:54
(UTC+12:00)

CZ-4B R/B - Pass Details

Date: 14 May 2021
Orbit: 809 x 881 km, 99.1° (Epoch: 16 June)

Event Time Altitude Azimuth Distance (km) Brightness Sun altitude
Exits shadow 19:24:13 14° 160° (SSE) 2,191 5.1 -21.0°
Maximum altitude 19:28:57 69° 77° (ENE) 876 3.0 -21.8°
Drops below altitude 10° 19:34:14 10° 353° (N) 2,402 5.7 -22.7°
Sets 19:36:35 0° 350° (N) 3,328 6.5 -23.2°
